{"data":{"norad_id":59939,"intl_designator":"2024-106T","name":"STARLINK-31955","alt_names":[],"object_type":"PAYLOAD","status":"ACTIVE","operator":null,"country":"US","launch_date":"2024-06-01","launch_site_code":"AFETR","launch_vehicle":null,"mission":null,"orbit_class":"UNKNOWN","rcs_meters":null,"size_class":null,"mass_kg":null,"dimensions":null,"purposes":["comms"],"wikipedia_slug":null,"has_3d_model":false,"image_url":null,"decayed_at":null,"tle_current":{"epoch":"2026-09-21T03:52:44.222016Z","epoch_age_seconds":120524,"freshness":"FRESH","line1":"1 59939U 24106T   26264.16162294  .00028149  00000+0  98011-3 0  9994","line2":"2 59939  43.0019 308.0808 0002222   9.1920 350.8973 15.29158238130463","mean_motion":15.29158238,"eccentricity":0.0002222,"inclination_deg":43.0019,"raan_deg":308.0808,"arg_perigee_deg":9.192,"mean_anomaly_deg":350.8973,"bstar":0.00098011,"rev_number":13046,"period_min":94.169456385586,"perigee_km":476.80384236391,"apogee_km":479.85085512049,"semimajor_km":6856.4643487422,"source":"CELESTRAK","updated_at":"2026-09-22T09:00:49.114187Z"}}}